FW4202 Blackshear GA US current weather conditions

sailwx.info

Wind from 140 at 0 knots gusting 6

Air temperature 15.0° C
Dewpoint 10.8° C

Last reported at 2019-Dec-11 20:02 UTC.
Time now 2019-Dec-11 20:49 UTC

Location: N 31°14' W 082°17'.
View on Google Maps.

See reports from other nearby stations

  
Tides and Currents Weather Stations Pressure Air Temp Water Temp Dewpoint Dewpoint Depression Visibility Wind Speed Wind Dir Waves Ship Positions
date/time (UTC)wind fromknots sea level pressurealtimeterstation pressurevisibilityair tempwater tempwave heightnotes
2019-Dec-11 20:02 140 0 gusting 6 15.0
2019-Dec-11 19:55 146 0 gusting 6 15.0
2019-Dec-11 19:50 167 0 gusting 6 15.0
2019-Dec-11 19:48 162 2 gusting 6 15.0
2019-Dec-11 19:40 233 1 gusting 5 15.0
2019-Dec-11 19:35 208 1 gusting 5 15.0
2019-Dec-11 19:31 140 0 gusting 6 15.0
2019-Dec-11 19:25 131 1 gusting 6 14.4
2019-Dec-11 19:20 139 0 gusting 5 14.4
2019-Dec-11 19:16 191 0 gusting 4 14.4
2019-Dec-11 19:10 149 0 gusting 3 14.4
2019-Dec-11 19:05 153 0 gusting 4 14.4
2019-Dec-11 19:01 132 1 gusting 4 14.4
2019-Dec-11 18:55 136 0 gusting 5 14.4
2019-Dec-11 18:50 096 1 gusting 5 15.0
2019-Dec-11 18:46 180 1 gusting 5 15.0
2019-Dec-11 18:40 188 0 gusting 3 15.0
2019-Dec-11 18:35 162 0 gusting 4 15.0
2019-Dec-11 18:31 208 0 gusting 4 15.6
2019-Dec-11 18:25 143 15.0
2019-Dec-11 18:20 164 0 gusting 3 15.0
2019-Dec-11 18:16 131 0 gusting 5 15.0
2019-Dec-11 18:10 138 1 gusting 5 14.4
2019-Dec-11 18:05 147 1 gusting 4 14.4
2019-Dec-11 18:01 178 0 gusting 4 14.4
2019-Dec-11 17:55 194 13.9
2019-Dec-11 17:46 127 0 gusting 5 13.3
2019-Dec-11 17:40 155 0 gusting 5 13.3
2019-Dec-11 17:35 163 0 gusting 4 13.3
2019-Dec-11 17:31 148 0 gusting 4 13.3
2019-Dec-11 17:25 140 13.3
2019-Dec-11 17:20 157 0 gusting 4 13.3
2019-Dec-11 17:10 157 0 gusting 3 13.3
2019-Dec-11 17:00 164 0 gusting 4 12.8
2019-Dec-11 16:55 162 0 gusting 4 12.8
2019-Dec-11 16:50 143 0 gusting 3 12.8
2019-Dec-11 16:40 157 12.8
2019-Dec-11 16:35 114 0 gusting 6 12.8
2019-Dec-11 16:25 147 0 gusting 4 12.8
2019-Dec-11 16:20 176 0 gusting 5 12.8
2019-Dec-11 16:10 178 0 gusting 6 12.8
2019-Dec-11 16:05 117 1 gusting 9 12.8
2019-Dec-11 15:55 155 3 gusting 9 12.2
2019-Dec-11 15:50 171 1 gusting 4 12.8
2019-Dec-11 15:40 193 12.2
2019-Dec-11 15:35 134 0 gusting 3 12.2
2019-Dec-11 15:25 179 11.7
2019-Dec-11 15:20 161 11.7
2019-Dec-11 15:10 136 0 gusting 6 11.1
2019-Dec-11 15:05 286 1 gusting 6 11.1
2019-Dec-11 14:55 165 10.6
2019-Dec-11 14:50 131 10.6
2019-Dec-11 14:40 182 1 gusting 5 10.0
2019-Dec-11 14:35 179 0 gusting 4 10.0
2019-Dec-11 14:25 173 1 gusting 6 10.0
2019-Dec-11 14:15 140 0 gusting 4 10.0
2019-Dec-11 14:05 173 1 gusting 5 10.0
2019-Dec-11 14:00 150 0 gusting 5 10.0
2019-Dec-11 13:55 148 2 gusting 5 10.6
2019-Dec-11 13:50 204 10.6
2019-Dec-11 13:40 214 0 gusting 6 10.0
2019-Dec-11 13:35 123 2 gusting 6 10.0
2019-Dec-11 13:30 222 1 gusting 6 10.0
2019-Dec-11 13:21 189 1 gusting 4 10.0
2019-Dec-11 13:17 179 0 gusting 3 10.0
2019-Dec-11 13:11 160 10.0
2019-Dec-11 13:05 197 0 gusting 5 10.0
2019-Dec-11 13:03 188 0 gusting 5 10.0
2019-Dec-11 12:55 132 0 gusting 6 10.0
2019-Dec-11 12:50 139 1 gusting 4 10.0
2019-Dec-11 12:48 164 1 gusting 5 10.0
2019-Dec-11 12:40 113 0 gusting 3 10.0
2019-Dec-11 12:35 136 10.0
2019-Dec-11 12:31 172 0 gusting 3 10.0
2019-Dec-11 12:25 136 10.0
2019-Dec-11 12:20 117 10.0
2019-Dec-11 12:17 115 10.0
2019-Dec-11 12:10 121 10.6
2019-Dec-11 12:05 103 10.6
2019-Dec-11 12:01 139 10.6
2019-Dec-11 11:55 176 0 gusting 2 10.6
2019-Dec-11 11:50 186 11.1
2019-Dec-11 11:49 141 11.1
2019-Dec-11 11:40 161 11.1
2019-Dec-11 11:35 162 11.1
2019-Dec-11 11:32 162 11.1
2019-Dec-11 11:25 181 11.1
2019-Dec-11 11:20 189 11.1
2019-Dec-11 11:16 148 11.1
2019-Dec-11 11:10 147 11.1
2019-Dec-11 11:05 154 11.1
2019-Dec-11 11:01 137 11.1
2019-Dec-11 10:56 195 11.1
2019-Dec-11 10:50 131 11.1
2019-Dec-11 10:46 171 11.1
2019-Dec-11 10:41 178 0 gusting 6 11.1
2019-Dec-11 10:35 088 11.1
2019-Dec-11 10:32 144 11.1
2019-Dec-11 10:25 132 11.1
2019-Dec-11 10:20 168 0 gusting 3 11.1
2019-Dec-11 10:17 134 11.1
2019-Dec-11 10:10 172 0 gusting 6 11.7
2019-Dec-11 10:05 137 1 gusting 6 11.7
2019-Dec-11 10:00 136 0 gusting 4 11.7
2019-Dec-11 09:55 105 0 gusting 4 11.7
2019-Dec-11 09:50 136 0 gusting 5 11.7
2019-Dec-11 09:46 159 0 gusting 5 11.7
2019-Dec-11 09:40 142 0 gusting 5 11.7
2019-Dec-11 09:35 149 11.7
2019-Dec-11 09:31 155 11.7
2019-Dec-11 09:25 170 11.7
2019-Dec-11 09:20 155 2 gusting 5 12.2
2019-Dec-11 09:16 129 1 gusting 6 12.2
2019-Dec-11 09:10 105 1 gusting 6 12.2
2019-Dec-11 09:05 131 0 gusting 6 12.2
2019-Dec-11 08:55 172 0 gusting 4 12.8
2019-Dec-11 08:50 158 12.8
2019-Dec-11 08:46 131 12.8
2019-Dec-11 08:40 152 12.8
2019-Dec-11 08:35 142 12.8
2019-Dec-11 08:31 200 13.3
2019-Dec-11 08:25 124 1 gusting 6 13.3
2019-Dec-11 08:20 136 1 gusting 6 13.9
2019-Dec-11 08:10 127 0 gusting 8 14.4
2019-Dec-11 08:05 172 0 gusting 8 14.4
2019-Dec-11 07:55 186 0 gusting 4 15.0
2019-Dec-11 07:50 162 15.0
2019-Dec-11 07:40 153 1 gusting 5 15.0
2019-Dec-11 07:35 116 0 gusting 6 15.0
2019-Dec-11 07:25 105 1 gusting 6 15.0
2019-Dec-11 07:15 155 0 gusting 9 15.0
2019-Dec-11 07:10 167 0 gusting 9 15.0
2019-Dec-11 07:02 226 15.6
2019-Dec-11 06:56 160 15.6
2019-Dec-11 06:51 146 1 gusting 4 15.6
2019-Dec-11 06:48 167 15.6
2019-Dec-11 06:41 181 16.1
2019-Dec-11 06:36 129 0 gusting 5 16.1
2019-Dec-11 06:32 141 16.1
2019-Dec-11 06:26 159 0 gusting 4 16.1
2019-Dec-11 06:20 173 16.7
2019-Dec-11 06:17 091 16.7
2019-Dec-11 06:11 113 16.7
2019-Dec-11 06:05 123 0 gusting 4 17.2
2019-Dec-11 06:03 156 17.8
2019-Dec-11 05:56 125 1 gusting 6 17.8
2019-Dec-11 05:50 170 1 gusting 6 18.3
2019-Dec-11 05:47 104 1 gusting 5 18.9
2019-Dec-11 05:40 172 0 gusting 5 18.9
2019-Dec-11 05:35 089 1 gusting 5 18.9
2019-Dec-11 05:32 080 18.3
2019-Dec-11 05:25 080 18.3
2019-Dec-11 05:20 080 17.8
2019-Dec-11 05:16 080 17.8
2019-Dec-11 05:10 080 18.3
2019-Dec-11 05:05 080 18.3
2019-Dec-11 05:01 080 18.3
2019-Dec-11 04:55 080 18.3
2019-Dec-11 04:50 080 18.9
2019-Dec-11 04:46 080 18.9
2019-Dec-11 04:40 080 18.9
2019-Dec-11 04:35 080 18.9
2019-Dec-11 04:32 080 18.9
2019-Dec-11 04:25 080 18.9
2019-Dec-11 04:20 080 18.9
2019-Dec-11 04:16 080 19.4
2019-Dec-11 04:11 080 19.4
2019-Dec-11 04:06 074 19.4
2019-Dec-11 04:01 074 19.4
2019-Dec-11 03:55 074 19.4
2019-Dec-11 03:51 074 19.4
2019-Dec-11 03:46 074 19.4
2019-Dec-11 03:40 074 19.4
2019-Dec-11 03:31 060 19.4
2019-Dec-11 03:25 060 19.4
2019-Dec-11 03:20 060 20.0
2019-Dec-11 03:17 058 20.0
2019-Dec-11 03:11 058 20.0
2019-Dec-11 03:05 058 20.6
2019-Dec-11 03:01 058 0 gusting 1 20.6
2019-Dec-11 02:55 042 20.6
2019-Dec-11 02:50 040 0 gusting 2 20.6
2019-Dec-11 02:47 046 20.6
2019-Dec-11 02:40 051 0 gusting 2 20.6
2019-Dec-11 02:35 033 0 gusting 2 20.6
2019-Dec-11 02:32 033 0 gusting 2 20.6
2019-Dec-11 02:25 037 0 gusting 2 20.6
2019-Dec-11 02:20 034 0 gusting 3 20.6
2019-Dec-11 02:17 025 0 gusting 3 20.6
2019-Dec-11 02:10 030 1 gusting 2 20.6
2019-Dec-11 02:05 036 0 gusting 1 20.6
2019-Dec-11 02:01 030 21.1
2019-Dec-11 01:55 030 0 gusting 2 21.1
2019-Dec-11 01:50 032 0 gusting 1 21.1
2019-Dec-11 01:46 032 0 gusting 1 21.1
2019-Dec-11 01:40 032 21.1
2019-Dec-11 01:35 032 0 gusting 2 21.7
2019-Dec-11 01:30 035 0 gusting 1 21.7
2019-Dec-11 01:25 035 0 gusting 2 21.7
2019-Dec-11 01:20 037 0 gusting 2 21.7
2019-Dec-11 01:17 039 1 gusting 2 21.7
2019-Dec-11 01:10 052 0 gusting 2 21.7
2019-Dec-11 01:06 042 1 gusting 2 21.7
2019-Dec-11 01:01 039 0 gusting 2 22.2
2019-Dec-11 00:55 053 1 gusting 4 22.2
2019-Dec-11 00:50 037 1 gusting 4 22.2
2019-Dec-11 00:45 035 1 gusting 3 22.2
2019-Dec-11 00:40 042 1 gusting 3 22.2
2019-Dec-11 00:35 031 1 gusting 2 22.2
2019-Dec-11 00:30 042 1 gusting 3 22.2
2019-Dec-11 00:25 032 1 gusting 3 22.8
2019-Dec-11 00:22 035 0 gusting 2 22.8
2019-Dec-11 00:17 045 1 gusting 2 22.8
2019-Dec-11 00:10 046 0 gusting 3 22.8
2019-Dec-11 00:05 046 0 gusting 3 22.8
2019-Dec-11 00:01 050 1 gusting 4 22.8
2019-Dec-10 23:55 032 1 gusting 4 22.8
2019-Dec-10 23:52 039 2 gusting 5 22.8
2019-Dec-10 23:47 038 2 gusting 5 22.8
2019-Dec-10 23:40 030 2 gusting 4 22.8
2019-Dec-10 23:35 032 2 gusting 4 22.8
2019-Dec-10 23:31 032 2 gusting 3 22.8
2019-Dec-10 23:25 041 1 gusting 5 23.3
2019-Dec-10 23:20 049 2 gusting 5 23.3
2019-Dec-10 23:16 038 2 gusting 5 23.3
2019-Dec-10 23:10 038 2 gusting 5 23.3
2019-Dec-10 23:05 045 2 gusting 5 23.3
2019-Dec-10 23:02 039 2 gusting 6 23.9
2019-Dec-10 22:55 024 4 gusting 6 23.9
2019-Dec-10 22:50 037 3 gusting 7 23.9
2019-Dec-10 22:46 030 4 gusting 7 24.4
2019-Dec-10 22:40 022 4 gusting 7 24.4
2019-Dec-10 22:35 034 2 gusting 7 24.4
2019-Dec-10 22:30 030 4 gusting 7 24.4
2019-Dec-10 22:25 034 3 gusting 6 25.0
2019-Dec-10 22:20 041 2 gusting 6 25.0
2019-Dec-10 22:16 035 3 gusting 6 25.0
2019-Dec-10 22:10 068 1 gusting 5 25.0
2019-Dec-10 22:05 060 2 gusting 5 25.0
2019-Dec-10 22:01 053 1 gusting 6 25.6
2019-Dec-10 21:55 023 2 gusting 9 25.6
2019-Dec-10 21:50 034 5 gusting 9 25.6
2019-Dec-10 21:46 032 4 gusting 7 25.6
2019-Dec-10 21:40 020 5 gusting 8 25.6
2019-Dec-10 21:35 016 5 gusting 8 26.1
2019-Dec-10 21:25 002 4 gusting 8 26.1
2019-Dec-10 21:20 030 5 gusting 8 26.1
2019-Dec-10 21:16 042 2 gusting 9 26.1
2019-Dec-10 21:10 034 4 gusting 9 26.1
2019-Dec-10 21:05 030 6 gusting 10 26.7
2019-Dec-10 21:00 034 6 gusting 10 26.7
2019-Dec-10 20:55 360 6 gusting 12 26.7
2019-Dec-10 20:50 027 6 gusting 12 26.7
2019-Dec-10 20:40 028 6 gusting 11 27.2
2019-Dec-10 20:35 022 5 gusting 9 27.2
2019-Dec-10 20:31 039 6 gusting 12 27.2
2019-Dec-10 20:25 025 7 gusting 12 27.8
2019-Dec-10 20:20 345 4 gusting 10 27.8
2019-Dec-10 20:10 045 3 gusting 7 28.3
2019-Dec-10 20:01 032 3 gusting 11 28.3
2019-Dec-10 19:55 041 7 gusting 11 28.3
2019-Dec-10 19:50 023 6 gusting 10 27.8
2019-Dec-10 19:45 015 3 gusting 7 27.8
2019-Dec-10 19:40 044 2 gusting 7 27.8
2019-Dec-10 19:30 018 3 gusting 8 27.8
2019-Dec-10 19:25 031 4 gusting 7 28.3
2019-Dec-10 19:20 075 4 gusting 8 28.3
2019-Dec-10 19:10 045 3 gusting 7 28.3
2019-Dec-10 19:05 078 3 gusting 8 28.3
2019-Dec-10 18:55 036 3 gusting 7 28.3
2019-Dec-10 18:46 046 4 gusting 10 27.8
2019-Dec-10 18:40 042 4 gusting 11 27.8
2019-Dec-10 18:35 040 6 gusting 11 27.8
2019-Dec-10 18:25 015 5 gusting 11 27.8
2019-Dec-10 18:11 041 4 gusting 11 27.2
2019-Dec-10 18:06 015 6 gusting 11 27.2
2019-Dec-10 18:03 025 6 gusting 11 27.2
2019-Dec-10 17:56 015 6 gusting 9 27.2
2019-Dec-10 17:51 037 5 gusting 9 27.2
2019-Dec-10 17:49 037 6 gusting 9 27.2
2019-Dec-10 17:40 353 4 gusting 10 27.2
2019-Dec-10 17:35 025 5 gusting 10 26.7
2019-Dec-10 17:32 030 4 gusting 11 26.7
2019-Dec-10 17:26 026 6 gusting 11 26.7
2019-Dec-10 17:20 020 6 gusting 10 26.7
2019-Dec-10 17:18 051 4 gusting 8 26.7
2019-Dec-10 17:11 008 5 gusting 7 26.7
2019-Dec-10 17:06 015 4 gusting 9 26.1
2019-Dec-10 17:04 044 4 gusting 10 26.1
2019-Dec-10 16:55 036 7 gusting 10 26.1
2019-Dec-10 16:50 017 4 gusting 10 26.1
2019-Dec-10 16:48 022 6 gusting 11 26.1
2019-Dec-10 16:41 029 5 gusting 11 26.1
2019-Dec-10 16:35 001 3 gusting 7 25.6
2019-Dec-10 16:32 032 5 gusting 7 25.6
2019-Dec-10 16:25 023 3 gusting 7 25.6
2019-Dec-10 16:20 042 3 gusting 9 25.0
2019-Dec-10 16:16 037 4 gusting 7 25.0
2019-Dec-10 16:10 017 4 gusting 7 25.0
2019-Dec-10 16:05 081 2 gusting 8 24.4
2019-Dec-10 16:01 340 4 gusting 8 24.4
2019-Dec-10 15:55 034 4 gusting 10 24.4
2019-Dec-10 15:50 349 5 gusting 9 23.9
2019-Dec-10 15:45 044 5 gusting 9 23.9
2019-Dec-10 15:40 036 3 gusting 6 23.9
2019-Dec-10 15:35 033 3 gusting 7 23.3
2019-Dec-10 15:30 018 4 gusting 8 23.3
2019-Dec-10 15:25 010 4 gusting 6 23.3
2019-Dec-10 15:20 034 3 gusting 5 22.8
2019-Dec-10 15:16 051 3 gusting 5 22.8
2019-Dec-10 15:10 038 2 gusting 6 22.2
2019-Dec-10 15:05 038 3 gusting 6 22.2
2019-Dec-10 15:00 040 3 gusting 6 21.7
2019-Dec-10 14:55 041 1 gusting 4 21.7
2019-Dec-10 14:50 043 1 gusting 6 21.1
2019-Dec-10 14:40 044 3 gusting 6 20.6
2019-Dec-10 14:35 031 2 gusting 6 20.6
2019-Dec-10 14:20 018 3 gusting 5 20.0
2019-Dec-10 14:15 023 1 gusting 3 19.4
2019-Dec-10 14:10 037 2 gusting 4 19.4
2019-Dec-10 14:05 051 1 gusting 5 18.9
2019-Dec-10 13:55 026 2 gusting 4 18.3
2019-Dec-10 13:50 024 1 gusting 5 17.8
2019-Dec-10 13:45 030 1 gusting 3 17.8
2019-Dec-10 13:40 053 1 gusting 3 17.8
2019-Dec-10 13:35 039 1 gusting 3 17.2
2019-Dec-10 13:25 044 1 gusting 5 17.2
2019-Dec-10 13:20 030 1 gusting 2 16.7
2019-Dec-10 13:15 031 16.7
2019-Dec-10 13:06 114 16.1
2019-Dec-10 13:02 114 16.1
2019-Dec-10 12:55 115 16.1
2019-Dec-10 12:51 115 16.1
2019-Dec-10 12:47 115 16.1
2019-Dec-10 12:40 115 16.1
2019-Dec-10 12:36 115 16.1
2019-Dec-10 12:31 115 16.1
2019-Dec-10 12:25 051 16.1
2019-Dec-10 12:21 051 16.1
2019-Dec-10 12:16 051 16.1
2019-Dec-10 12:11 051 16.1
2019-Dec-10 12:05 038 16.1
2019-Dec-10 12:03 035 16.7
2019-Dec-10 11:55 359 16.1
2019-Dec-10 11:50 032 16.7
2019-Dec-10 11:46 032 0 gusting 2 16.7
2019-Dec-10 11:40 005 0 gusting 2 16.1
2019-Dec-10 11:35 356 16.1
2019-Dec-10 11:33 356 16.1
2019-Dec-10 11:26 120 16.1
2019-Dec-10 11:20 120 16.1
2019-Dec-10 11:16 120 16.1
2019-Dec-10 11:11 120 16.1
2019-Dec-10 11:06 120 16.1
2019-Dec-10 11:02 120 16.1
2019-Dec-10 10:56 120 16.7
2019-Dec-10 10:50 120 16.7
2019-Dec-10 10:46 120 16.7
2019-Dec-10 10:41 120 16.1
2019-Dec-10 10:35 120 16.7
2019-Dec-10 10:32 120 16.7
2019-Dec-10 10:25 120 16.7
2019-Dec-10 10:20 120 16.7
2019-Dec-10 10:16 120 16.7
2019-Dec-10 10:10 120 16.7
2019-Dec-10 10:05 120 17.2
2019-Dec-10 10:01 120 17.2
2019-Dec-10 09:55 120 17.2
2019-Dec-10 09:51 120 17.2
2019-Dec-10 09:47 056 17.8
2019-Dec-10 09:40 056 17.8
2019-Dec-10 09:35 056 17.8
2019-Dec-10 09:31 040 0 gusting 2 17.8
2019-Dec-10 09:25 068 17.8
2019-Dec-10 09:20 042 0 gusting 2 17.8
2019-Dec-10 09:17 060 0 gusting 2 17.8
2019-Dec-10 09:10 060 17.8
2019-Dec-10 09:05 065 0 gusting 2 17.8
2019-Dec-10 08:55 049 0 gusting 2 17.8
2019-Dec-10 08:50 049 17.8
2019-Dec-10 08:46 050 0 gusting 2 17.8
2019-Dec-10 08:40 049 1 gusting 2 18.3
2019-Dec-10 08:35 033 1 gusting 2 18.3
2019-Dec-10 08:32 038 1 gusting 2 18.3
2019-Dec-10 08:25 043 0 gusting 2 17.8
2019-Dec-10 08:20 034 0 gusting 2 17.8
2019-Dec-10 08:16 045 0 gusting 3 17.8
2019-Dec-10 08:10 043 1 gusting 3 17.8
2019-Dec-10 08:05 037 0 gusting 3 17.8
2019-Dec-10 08:01 056 0 gusting 3 17.8
2019-Dec-10 07:55 036 0 gusting 2 17.8
2019-Dec-10 07:50 046 0 gusting 3 17.8
2019-Dec-10 07:45 041 1 gusting 3 17.8
2019-Dec-10 07:40 044 0 gusting 2 17.8
2019-Dec-10 07:35 044 0 gusting 2 17.8
2019-Dec-10 07:30 051 0 gusting 1 17.8
2019-Dec-10 07:25 054 0 gusting 2 18.3
2019-Dec-10 07:20 046 0 gusting 2 18.3
2019-Dec-10 07:16 046 0 gusting 2 18.3
2019-Dec-10 07:10 041 1 gusting 4 18.3
2019-Dec-10 07:05 030 1 gusting 4 18.3
2019-Dec-10 07:01 044 1 gusting 4 18.3
2019-Dec-10 06:55 026 1 gusting 4 18.3
2019-Dec-10 06:50 039 1 gusting 5 18.3
2019-Dec-10 06:45 035 2 gusting 5 18.3
2019-Dec-10 06:40 023 2 gusting 4 18.3
2019-Dec-10 06:35 039 1 gusting 4 18.3
2019-Dec-10 06:30 038 1 gusting 3 18.3
2019-Dec-10 06:25 036 1 gusting 3 18.3
2019-Dec-10 06:20 040 0 gusting 2 18.3
2019-Dec-10 06:15 030 0 gusting 2 18.3
2019-Dec-10 06:10 032 0 gusting 3 18.3
2019-Dec-10 06:05 032 0 gusting 1 18.3
2019-Dec-10 06:01 033 0 gusting 2 18.3
2019-Dec-10 05:55 034 0 gusting 2 18.3
2019-Dec-10 05:50 035 18.3
2019-Dec-10 05:46 034 0 gusting 2 18.3
2019-Dec-10 05:40 034 0 gusting 2 18.3
2019-Dec-10 05:35 053 18.3
2019-Dec-10 05:31 053 0 gusting 1 18.3
2019-Dec-10 05:25 053 18.3
2019-Dec-10 05:20 044 0 gusting 2 18.9
2019-Dec-10 05:15 041 1 gusting 3 18.9
2019-Dec-10 05:10 034 1 gusting 3 18.9
2019-Dec-10 05:05 026 1 gusting 3 18.3
2019-Dec-10 04:55 038 0 gusting 1 18.9
2019-Dec-10 04:45 030 0 gusting 1 18.9
2019-Dec-10 04:40 030 0 gusting 2 18.9
2019-Dec-10 04:30 025 1 gusting 4 19.4
2019-Dec-10 04:25 023 1 gusting 4 19.4
2019-Dec-10 04:20 029 1 gusting 4 19.4
2019-Dec-10 04:10 040 1 gusting 3 19.4
2019-Dec-10 04:00 022 1 gusting 4 19.4
2019-Dec-10 03:55 023 1 gusting 3 19.4
2019-Dec-10 03:50 029 1 gusting 2 19.4
2019-Dec-10 03:40 034 0 gusting 3 19.4
2019-Dec-10 03:35 032 0 gusting 2 20.0
2019-Dec-10 03:25 026 0 gusting 3 20.0
2019-Dec-10 03:15 039 1 gusting 3 20.0
2019-Dec-10 03:10 044 1 gusting 3 20.0
2019-Dec-10 03:05 037 1 gusting 3 20.6
2019-Dec-10 02:55 030 2 gusting 5 20.6
2019-Dec-10 02:50 031 2 gusting 6 20.6
2019-Dec-10 02:40 035 2 gusting 5 20.0
2019-Dec-10 02:35 041 3 gusting 5 20.0
2019-Dec-10 02:25 029 2 gusting 5 20.0
2019-Dec-10 02:20 034 1 gusting 3 20.0
2019-Dec-10 02:10 041 20.0
2019-Dec-10 02:05 032 20.6
2019-Dec-10 01:55 034 2 gusting 4 20.6
2019-Dec-10 01:50 032 1 gusting 3 20.6
2019-Dec-10 01:40 034 0 gusting 2 20.6
2019-Dec-10 01:35 044 0 gusting 2 20.6
2019-Dec-10 01:30 066 20.0
2019-Dec-10 01:25 067 20.0
2019-Dec-10 01:20 067 20.0
2019-Dec-10 01:15 067 20.0
2019-Dec-10 01:10 067 20.0
2019-Dec-10 01:05 067 20.0
2019-Dec-10 01:00 067 20.0
2019-Dec-10 00:55 067 19.4
2019-Dec-10 00:50 067 19.4
2019-Dec-10 00:40 067 19.4
2019-Dec-10 00:35 067 19.4
2019-Dec-10 00:25 067 19.4
2019-Dec-10 00:20 067 20.0
2019-Dec-10 00:15 067 20.0
2019-Dec-10 00:10 066 20.0
2019-Dec-10 00:05 066 20.0
2019-Dec-10 00:00 066 20.0
2019-Dec-09 23:55 066 20.6
2019-Dec-09 23:50 066 20.6
2019-Dec-09 23:45 066 20.6
2019-Dec-09 23:40 066 21.1
2019-Dec-09 23:35 066 21.1
2019-Dec-09 23:30 066 21.1
2019-Dec-09 23:25 066 21.7
2019-Dec-09 23:20 066 21.7
2019-Dec-09 23:15 066 21.7
2019-Dec-09 23:10 066 21.7
2019-Dec-09 23:05 066 22.2
2019-Dec-09 23:00 066 22.2
2019-Dec-09 22:55 066 22.8
2019-Dec-09 22:50 065 0 gusting 1 22.8
2019-Dec-09 22:40 037 0 gusting 2 22.8
2019-Dec-09 22:35 048 23.3
2019-Dec-09 22:25 043 1 gusting 2 23.3
2019-Dec-09 22:20 045 1 gusting 3 23.9
2019-Dec-09 22:15 027 0 gusting 3 23.9
2019-Dec-09 22:10 037 1 gusting 5 23.9
2019-Dec-09 22:05 032 3 gusting 5 23.9
2019-Dec-09 22:00 032 2 gusting 6 24.4
2019-Dec-09 21:55 004 2 gusting 6 24.4
2019-Dec-09 21:50 032 3 gusting 6 24.4
2019-Dec-09 21:45 021 3 gusting 7 24.4
2019-Dec-09 21:40 008 4 gusting 11 25.0
2019-Dec-09 21:35 001 5 gusting 11 25.0
2019-Dec-09 21:30 050 3 gusting 7 25.0
2019-Dec-09 21:21 030 4 gusting 7 25.0
2019-Dec-09 21:16 028 4 gusting 7 25.0
2019-Dec-09 21:10 016 4 gusting 8 25.0
2019-Dec-09 21:06 018 4 gusting 7 25.0
2019-Dec-09 21:02 018 3 gusting 9 25.6
2019-Dec-09 20:55 030 4 gusting 9 25.6
2019-Dec-09 20:50 030 5 gusting 8 25.6
2019-Dec-09 20:46 327 4 gusting 9 25.6
2019-Dec-09 20:40 342 4 gusting 9 25.6
2019-Dec-09 20:35 030 3 gusting 7 25.6
2019-Dec-09 20:31 002 3 gusting 6 25.0
2019-Dec-09 20:25 035 4 gusting 6 25.0
2019-Dec-09 20:20 027 3 gusting 7 25.0
2019-Dec-09 20:17 008 4 gusting 7 25.0
2019-Dec-09 20:10 018 3 gusting 6 25.0
2019-Dec-09 20:05 028 3 gusting 6 25.0
2019-Dec-09 20:01 005 3 gusting 6 25.0